Time,TemperatureF,DewpointF,PressureIn,WindDirection,WindDirectionDegrees,WindSpeedMPH,WindSpeedGustMPH,Humidity,HourlyPrecipIn,Conditions,Clouds,dailyrainin,SoftwareType,DateUTC
2013-10-30 00:22:00,48.0,46.0,-100.00,NNE,30,2.0,4.0,94,0.00,,,-99.99,,2013-10-30 05:22:00,
2013-10-30 00:43:00,48.0,46.0,-100.00,NE,45,3.0,6.0,94,0.00,,,-99.99,,2013-10-30 05:43:00,
2013-10-30 01:22:00,48.0,46.0,-100.00,NE,50,2.0,4.0,93,0.00,,,-99.99,,2013-10-30 06:22:00,
2013-10-30 01:42:00,48.0,46.0,-100.00,NE,40,3.0,5.0,93,0.00,,,-99.99,,2013-10-30 06:42:00,
2013-10-30 02:21:00,48.0,46.0,-100.00,NE,45,3.0,5.0,93,0.00,,,-99.99,,2013-10-30 07:21:00,
2013-10-30 02:42:00,48.0,46.0,-100.00,East,80,5.0,7.0,93,0.00,,,-99.99,,2013-10-30 07:42:00,
2013-10-30 03:21:00,48.0,46.0,-100.00,ENE,75,6.0,9.0,93,0.00,,,-99.99,,2013-10-30 08:21:00,
2013-10-30 03:42:00,48.0,46.0,-100.00,East,90,6.0,9.0,93,0.00,,,-99.99,,2013-10-30 08:42:00,
2013-10-30 04:22:00,48.0,46.0,-100.00,ENE,75,3.0,6.0,93,0.00,,,-99.99,,2013-10-30 09:22:00,
2013-10-30 04:42:00,48.0,46.0,-100.00,ENE,70,3.0,6.0,93,0.00,,,-99.99,,2013-10-30 09:42:00,
2013-10-30 05:23:00,48.0,46.0,-100.00,ENE,65,4.0,6.0,93,0.00,,,-99.99,,2013-10-30 10:23:00,
2013-10-30 05:43:00,48.0,46.0,-100.00,ENE,70,4.0,6.0,93,0.00,,,-99.99,,2013-10-30 10:43:00,
2013-10-30 06:22:00,48.0,46.0,-100.00,East,100,6.0,7.0,93,0.00,,,-99.99,,2013-10-30 11:22:00,
2013-10-30 06:42:00,48.0,47.0,-100.00,ESE,110,4.0,7.0,94,0.00,,,-99.99,,2013-10-30 11:42:00,
2013-10-30 07:22:00,48.0,47.0,-100.00,East,95,5.0,7.0,94,0.00,,,-99.99,,2013-10-30 12:22:00,
2013-10-30 07:42:00,49.0,47.0,-100.00,East,100,4.0,9.0,94,0.00,,,-99.99,,2013-10-30 12:42:00,
2013-10-30 08:42:00,49.0,47.0,-100.00,SSE,160,6.0,9.0,94,0.00,,,-99.99,,2013-10-30 13:42:00,
2013-10-30 09:21:00,49.0,47.0,-100.00,South,170,6.0,7.0,94,0.00,,,-99.99,,2013-10-30 14:21:00,
2013-10-30 09:42:00,49.0,48.0,-100.00,SSE,155,4.0,8.0,94,0.00,,,-99.99,,2013-10-30 14:42:00,
2013-10-30 10:22:00,50.0,48.0,-100.00,ENE,70,7.0,11.0,94,0.00,,,-99.99,,2013-10-30 15:22:00,
2013-10-30 10:43:00,51.0,49.0,-100.00,East,100,10.0,15.0,94,0.00,,,-99.99,,2013-10-30 15:43:00,
2013-10-30 11:23:00,53.0,51.0,-100.00,SE,130,9.0,16.0,94,0.00,,,-99.99,,2013-10-30 16:23:00,
2013-10-30 11:42:00,52.0,50.0,-100.00,ESE,120,7.0,12.0,94,0.00,,,-99.99,,2013-10-30 16:42:00,
2013-10-30 12:22:00,52.0,51.0,-100.00,SE,135,3.0,9.0,94,0.00,,,-99.99,,2013-10-30 17:22:00,
2013-10-30 12:42:00,53.0,51.0,-100.00,SW,235,3.0,6.0,94,0.00,,,-99.99,,2013-10-30 17:42:00,
2013-10-30 13:21:00,54.0,53.0,-100.00,SSW,200,3.0,6.0,94,0.00,,,-99.99,,2013-10-30 18:21:00,
2013-10-30 13:42:00,55.0,54.0,-100.00,SSW,210,2.0,7.0,93,0.00,,,-99.99,,2013-10-30 18:42:00,
2013-10-30 14:21:00,56.0,54.0,-100.00,West,275,3.0,6.0,93,0.00,,,-99.99,,2013-10-30 19:21:00,
2013-10-30 14:42:00,55.0,53.0,-100.00,West,260,5.0,7.0,93,0.00,,,-99.99,,2013-10-30 19:42:00,
2013-10-30 15:21:00,54.0,53.0,-100.00,West,270,8.0,11.0,93,0.00,,,-99.99,,2013-10-30 20:21:00,
2013-10-30 15:42:00,53.0,51.0,-100.00,WNW,295,9.0,13.0,93,0.00,,,-99.99,,2013-10-30 20:42:00,
2013-10-30 16:21:00,52.0,50.0,-100.00,NW,310,7.0,11.0,93,0.00,,,-99.99,,2013-10-30 21:21:00,
2013-10-30 16:43:00,51.0,50.0,-100.00,NW,315,4.0,12.0,93,0.00,,,-99.99,,2013-10-30 21:43:00,
2013-10-30 17:23:00,51.0,49.0,-100.00,NW,310,6.0,7.0,93,0.00,,,-99.99,,2013-10-30 22:23:00,
2013-10-30 17:43:00,51.0,49.0,-100.00,NW,310,5.0,6.0,93,0.00,,,-99.99,,2013-10-30 22:43:00,
2013-10-30 18:22:00,50.0,48.0,-100.00,NNW,335,2.0,4.0,93,0.00,,,-99.99,,2013-10-30 23:22:00,
2013-10-30 18:42:00,50.0,48.0,-100.00,NNW,340,1.0,3.0,93,0.00,,,-99.99,,2013-10-30 23:42:00,
2013-10-30 19:22:00,50.0,48.0,-100.00,WNW,295,2.0,2.0,93,0.00,,,-99.99,,2013-10-31 00:22:00,
2013-10-30 19:42:00,49.0,48.0,-100.00,West,280,4.0,5.0,93,0.00,,,-99.99,,2013-10-31 00:42:00,
2013-10-30 20:22:00,49.0,47.0,-100.00,West,280,5.0,7.0,93,0.00,,,-99.99,,2013-10-31 01:22:00,
2013-10-30 20:42:00,49.0,47.0,-100.00,WNW,285,8.0,11.0,93,0.00,,,-99.99,,2013-10-31 01:42:00,
2013-10-30 21:22:00,46.0,44.0,-100.00,NW,305,9.0,12.0,93,0.00,,,-99.99,,2013-10-31 02:22:00,
2013-10-30 22:22:00,45.0,43.0,-100.00,WNW,300,7.0,9.0,93,0.00,,,-99.99,,2013-10-31 03:22:00,
2013-10-30 22:44:00,44.0,42.0,-100.00,WNW,300,10.0,14.0,93,0.00,,,-99.99,,2013-10-31 03:44:00,
2013-10-30 23:23:00,43.0,41.0,-100.00,WNW,300,10.0,15.0,93,0.00,,,-99.99,,2013-10-31 04:23:00,
2013-10-30 23:43:00,42.0,41.0,-100.00,WNW,295,10.0,16.0,93,0.00,,,-99.99,,2013-10-31 04:43:00,